Finales Départementales des Jeunes - J2 - PAS-DE-CALAIS

Compétition Départementale

LENS

Le Dimanche 29 Mai 2011

Bassin de 50m

100 Brasse Messieurs

Séries

Nom Année Temps Pts Club Pays
1 RENUY Floryan 1998 1:26:93 691 SN LENS FRA
2 HANQUIEZ Theo 1998 1:27:41 681 SC BOULOGNE-SUR-MER FRA
3 LOUVET Antoine 1998 1:31:01 608 CALAIS NATATION FRA
4 KLAUS Thibault 1998 1:31:64 596 USO BRUAY-LA-BUISSIERE FRA
5 WASSELIN Théo 1998 1:31:88 591 DAUPHINS ST-OMER FRA
6 MATTON Léo 1998 1:31:90 591 CALAIS NATATION FRA
7 GAILLARD Theo 1999 1:32:04 588 AUCHEL NATATION FRA
8 VANHOUTTE Victor 1998 1:32:41 581 SC BOULOGNE-SUR-MER FRA
9 LAMY Hugo 1999 1:33:10 568 SN LENS FRA
10 FROISSART Aurélien 1998 1:33:51 560 US MONTREUIL-SUR-MER FRA
11 DUHAMEL Gauthier 1998 1:34:11 549 AUCHEL NATATION FRA
12 GOSSELIN Antony 1999 1:36:07 513 US MONTREUIL-SUR-MER FRA
13 DELMOTTE Loic 1999 1:36:22 510 SC BOULOGNE-SUR-MER FRA
14 FONTAINE Rodrigue 1999 1:36:86 499 CN DIVION FRA
15 DUFOUR Victor 1999 1:36:98 497 AUCHEL NATATION FRA
16 CORNU Louis 2000 1:37:41 489 BERCK NATATION FRA
17 LENOIR Alexandre 1998 1:39:10 460 USO BRUAY-LA-BUISSIERE FRA
18 JAYET Axel 1998 1:39:22 458 STADE BÉTHUNE PÉLICAN CLUB FRA
19 BUQUET Mathis 2000 1:39:70 450 SN HARNES FRA
20 MRUGALSKI Arthur 1998 1:41:27 424 RACING CLUB ARRAS FRA
21 BARON Axel 1998 1:41:92 413 CALAIS NATATION FRA
22 DEWILDE Colin 2000 1:42:27 407 CN COURRIÈRES FRA
23 WINOCK Hugo 2000 1:42:62 402 DAUPHINS ST-OMER FRA
24 PROBST Théo 2000 1:42:70 401 CALAIS NATATION FRA
25 JAYET Zakari 2000 1:43:00 396 STADE BÉTHUNE PÉLICAN CLUB FRA
26 LENOIR Antoine 2000 1:43:57 387 USO BRUAY-LA-BUISSIERE FRA
27 BOILEAU Achille 1998 1:43:89 382 DAUPHINS ST-OMER FRA
28 PLAHIERS Nicolas 2000 1:43:96 381 SN LENS FRA
29 WATEL Baptiste 1998 1:44:16 378 AUCHEL NATATION FRA
30 LAMPIN Leo 1998 1:44:35 375 SN LENS FRA
31 LAMON Maty 1999 1:44:62 371 CN COURRIÈRES FRA
32 TROLLÉ Pierre 2000 1:45:33 360 US MONTREUIL-SUR-MER FRA
33 ABACHIN Gregoire 1998 1:45:74 354 CALAIS NATATION FRA
34 RODRIGUEZ Stéphane 2001 1:46:21 347 US MONTREUIL-SUR-MER FRA
35 MATUSZAK Leo 2001 1:46:30 345 STADE BÉTHUNE PÉLICAN CLUB FRA
36 RENAULT Clement 2000 1:46:91 336 CALAIS NATATION FRA
37 BERNARD Erwin 2000 1:47:13 333 SN HARNES FRA
38 DELIE Martin 2001 1:47:17 333 SC BOULOGNE-SUR-MER FRA
39 LEROUX Esteban 2000 1:47:49 328 SC BOULOGNE-SUR-MER FRA
40 MILLE Thomas 2001 1:47:93 322 CALAIS NATATION FRA
41 MASSON Maxime 1998 1:48:60 312 DAUPHINS ST-OMER FRA
42 LEQUEUX Antonin 2001 1:48:61 312 US MONTREUIL-SUR-MER FRA
43 BECQUET Vianney 1999 1:49:97 293 US MONTREUIL-SUR-MER FRA
44 DELPLANQUE David 2000 1:50:11 291 RACING CLUB ARRAS FRA
45 CHARLEMAGNE Leo 1998 1:50:85 281 ASL CANETONS LILLERS FRA
46 DEHARTE Leopold 1998 1:51:01 279 CALAIS NATATION FRA
47 BUFFAUT Adam 2000 1:51:09 278 SN LENS FRA
48 MAGNIER Arthur 2001 1:51:54 272 DAUPHINS ST-OMER FRA
49 WATEL Thibaut 2001 1:52:10 265 USO BRUAY-LA-BUISSIERE FRA
50 CLAUDEL Valentin 1999 1:54:31 237 CALAIS NATATION FRA
51 SIMON Balthazar 2001 1:54:92 230 SC BOULOGNE-SUR-MER FRA
52 COPPIN Baptiste 2001 1:55:07 228 CALAIS NATATION FRA
53 VILLAYES Julien 2000 1:55:11 227 SN LENS FRA
54 FLEJSZAR Clement 2001 1:55:76 220 SN LENS FRA
55 COCQUERELLE Antoine 2000 1:56:60 210 SN HARNES FRA
56 LELEU Baptiste 2001 1:57:09 204 CALAIS NATATION FRA
57 LHERBIER Hugo 2000 1:57:11 204 SN LENS FRA
58 LOOTEN Cyprien 2001 1:57:80 196 DAUPHINS ST-OMER FRA
59 HEMBERT Lucas 2001 1:57:82 196 CALAIS NATATION FRA
60 DESBONNETS Simon 2000 1:58:49 189 US MONTREUIL-SUR-MER FRA
61 SENECHAL Théo 2000 1:58:57 188 SN HARNES FRA
62 HUNET Marvin 2001 1:59:46 178 SN LENS FRA
63 DESFONTAINES Bastien 2001 1:59:56 177 AUCHEL NATATION FRA
64 CONSTANT Jules 2001 2:01:15 161 DAUPHINS ST-OMER FRA
65 FIEF Tristan 2001 2:02:24 150 ENC ACHICOURT FRA
66 LOUVET Loïc 2001 2:03:10 142 CALAIS NATATION FRA
67 DELETTRE Antoine 2000 2:03:73 136 AUCHEL NATATION FRA
68 RENAULT Martin 2001 2:04:90 125 CALAIS NATATION FRA
69 GONTIER Adrien 2000 2:05:20 122 CALAIS NATATION FRA
70 MAY Thibault 2001 2:08:30 97 DAUPHINS ST-OMER FRA
71 SAUDEMONT Felix 2001 2:09:16 90 ENC ACHICOURT FRA
72 THULLIER Gaëtan 2001 2:09:20 90 STADE BÉTHUNE PÉLICAN CLUB FRA
RACING CLUB ARRAS